Le nostre stazioni meteo in Italia

Pubblicità
Il mio iltempo24.it
Bologna, Italia (16132): Temperatura & dewpoint: 10.02.2019 07:00:00 - 16.02.2019 07:00:00 (CET)Bologna, Italia (16132): reduced air pressure: 10.02.2019 07:00:00 - 16.02.2019 07:00:00 (CET)Bologna, Italia (16132): precipitazioni: 10.02.2019 07:00:00 - 16.02.2019 07:00:00 (CET)
Data & Tempo tt [°C] td [°C] ppp [hPa] rr [mm]
16.02.2019 07:00:00 - - - -
16.02.2019 06:00:00 2,3 -2,9 1032,2 -
16.02.2019 05:00:00 2,7 -2,7 1032,4 -
16.02.2019 04:00:00 3,5 -2,5 1032,5 -
16.02.2019 03:00:00 5,3 -1,9 1032,4 -
16.02.2019 02:00:00 5,8 -1,0 1032,6 -
16.02.2019 01:00:00 5,6 -1,2 1032,9 -
16.02.2019 00:00:00 5,7 -0,9 1033,0 -
15.02.2019 23:00:00 5,5 -1,1 1032,7 -
15.02.2019 22:00:00 6,3 -0,8 1032,3 -
15.02.2019 21:00:00 7,9 1,4 1032,2 -
15.02.2019 20:00:00 9,4 1,7 1031,7 -
15.02.2019 19:00:00 11,0 1,2 1031,8 -
15.02.2019 18:00:00 12,1 1,3 1031,2 -
15.02.2019 17:00:00 13,8 2,0 1030,8 -
15.02.2019 16:00:00 14,4 1,5 1030,6 -
15.02.2019 15:00:00 14,7 2,2 1030,5 -
15.02.2019 14:00:00 13,9 1,7 1031,2 -
15.02.2019 13:00:00 12,1 1,6 1032,0 -
15.02.2019 12:00:00 10,9 1,3 1032,9 -
15.02.2019 11:00:00 9,1 0,2 1033,2 -
15.02.2019 10:00:00 7,7 -0,6 1033,1 -
15.02.2019 09:00:00 4,5 -2,2 1033,4 -
15.02.2019 08:00:00 2,1 -3,9 1033,3 -
15.02.2019 07:00:00 2,0 -4,2 1033,3 -
15.02.2019 06:00:00 2,3 -3,9 1033,3 -
15.02.2019 05:00:00 2,2 -4,2 1032,8 -
15.02.2019 04:00:00 3,1 -3,6 1033,1 -
15.02.2019 03:00:00 3,8 -3,1 1033,2 -
15.02.2019 02:00:00 4,0 -3,2 1033,6 -
15.02.2019 01:00:00 4,5 -2,7 1033,6 -
15.02.2019 00:00:00 4,8 -2,4 1033,5 -
14.02.2019 23:00:00 4,9 -2,3 1033,5 -
14.02.2019 22:00:00 5,4 -1,8 1033,0 -
14.02.2019 21:00:00 6,3 -1,2 1033,4 -
14.02.2019 20:00:00 7,7 -0,6 1033,9 -
14.02.2019 19:00:00 8,8 -1,2 1033,3 -
14.02.2019 18:00:00 11,3 -0,3 1032,7 -
14.02.2019 17:00:00 13,4 1,0 1032,6 -
14.02.2019 16:00:00 14,0 0,8 1033,0 -
14.02.2019 15:00:00 13,6 -0,6 1033,4 -
14.02.2019 14:00:00 13,8 0,0 1033,9 -
14.02.2019 13:00:00 12,7 0,7 1034,6 -
14.02.2019 12:00:00 10,6 1,1 1036,0 -
14.02.2019 11:00:00 9,4 0,2 1036,3 -
14.02.2019 10:00:00 6,8 -2,2 1037,0 -
14.02.2019 09:00:00 3,5 -4,3 1037,0 -
14.02.2019 08:00:00 2,0 -5,5 1036,9 -
14.02.2019 07:00:00 1,9 -5,6 1037,0 0,0
14.02.2019 06:00:00 1,8 -5,5 1037,2 -
14.02.2019 05:00:00 2,5 -5,0 1037,4 -
14.02.2019 04:00:00 2,6 -4,9 1037,6 -
14.02.2019 03:00:00 3,1 -5,2 1037,7 -
14.02.2019 02:00:00 3,3 -4,7 1038,1 -
14.02.2019 01:00:00 3,3 -4,5 1038,2 0,0
14.02.2019 00:00:00 3,8 -4,5 1038,0 -
13.02.2019 23:00:00 4,1 -4,2 1037,8 -
13.02.2019 22:00:00 5,0 -3,6 1037,7 -
13.02.2019 21:00:00 5,3 -3,9 1037,2 -
13.02.2019 20:00:00 7,2 -4,1 1036,7 -
13.02.2019 19:00:00 9,6 -3,5 1036,2 0,0
13.02.2019 18:00:00 10,8 -3,8 1035,7 -
13.02.2019 17:00:00 12,3 -4,5 1035,0 -
13.02.2019 16:00:00 13,1 -3,8 1035,1 -
13.02.2019 15:00:00 12,6 -3,8 1035,4 -
13.02.2019 14:00:00 13,3 -1,6 1035,5 -
13.02.2019 13:00:00 10,9 -1,6 1036,2 -
13.02.2019 12:00:00 8,6 -1,9 1036,9 -
13.02.2019 11:00:00 6,7 -3,7 1036,7 -
13.02.2019 10:00:00 5,2 -5,3 1036,7 -
13.02.2019 09:00:00 3,2 -5,1 1036,0 -
13.02.2019 08:00:00 0,9 -6,8 1035,2 -
13.02.2019 07:00:00 -0,1 -7,2 1034,5 0,0
13.02.2019 06:00:00 0,3 -6,9 1034,0 -
13.02.2019 05:00:00 -0,3 -6,6 1033,4 -
13.02.2019 04:00:00 -0,1 -6,2 1032,9 -
13.02.2019 03:00:00 0,3 -6,7 1032,6 -
13.02.2019 02:00:00 0,7 -6,9 1032,1 -
13.02.2019 01:00:00 2,8 -6,2 1031,9 0,0
13.02.2019 00:00:00 4,7 -6,6 1030,9 -
12.02.2019 23:00:00 3,7 -6,4 1030,0 -
12.02.2019 22:00:00 5,1 -6,6 1029,1 -
12.02.2019 21:00:00 7,1 -6,1 1027,9 -
12.02.2019 20:00:00 8,2 -5,8 1027,1 -
12.02.2019 19:00:00 8,9 -6,6 1026,0 0,0
12.02.2019 18:00:00 10,6 -7,8 1024,9 -
12.02.2019 17:00:00 13,6 -7,3 1024,4 -
12.02.2019 16:00:00 14,6 -7,6 1023,6 -
12.02.2019 15:00:00 15,1 -7,2 1023,7 -
12.02.2019 14:00:00 14,6 -6,4 1023,6 -
12.02.2019 13:00:00 13,9 -7,0 1023,9 -
12.02.2019 12:00:00 13,4 -6,9 1024,6 -
12.02.2019 11:00:00 12,2 -7,4 1024,7 -
12.02.2019 10:00:00 10,8 -6,7 1025,0 -
12.02.2019 09:00:00 7,8 -7,2 1025,3 -
12.02.2019 08:00:00 5,0 -9,3 1024,6 -
12.02.2019 07:00:00 5,9 -9,7 1024,5 0,0
12.02.2019 06:00:00 6,1 -9,1 1023,7 -
12.02.2019 05:00:00 5,6 -9,2 1022,9 -
12.02.2019 04:00:00 5,2 -9,2 1022,7 -
12.02.2019 03:00:00 5,6 -9,2 1022,7 -
12.02.2019 02:00:00 6,3 -8,6 1022,2 -
12.02.2019 01:00:00 6,3 -8,2 1021,9 0,0
12.02.2019 00:00:00 7,2 -8,1 1021,0 -
11.02.2019 23:00:00 8,0 -7,8 1020,1 -
11.02.2019 22:00:00 9,1 -7,7 1019,0 -
11.02.2019 21:00:00 9,6 -7,7 1018,0 -
11.02.2019 20:00:00 9,5 -6,9 1017,0 -
11.02.2019 19:00:00 9,9 -5,8 1016,0 0,0
11.02.2019 18:00:00 11,0 -4,8 1014,5 -
11.02.2019 17:00:00 12,5 -3,9 1013,5 -
11.02.2019 16:00:00 13,0 -3,4 1012,7 -
11.02.2019 15:00:00 12,5 -0,5 1011,9 -
11.02.2019 14:00:00 12,3 -1,0 1011,4 -
11.02.2019 13:00:00 12,0 -1,3 1011,2 0,0
11.02.2019 12:00:00 10,5 -1,0 1011,0 -
11.02.2019 11:00:00 9,8 -0,5 1010,3 -
11.02.2019 10:00:00 9,0 -1,3 1010,0 -
11.02.2019 09:00:00 6,7 -0,6 1009,1 -
11.02.2019 08:00:00 2,9 0,3 1008,2 -
11.02.2019 07:00:00 3,6 0,9 1007,2 0,0
11.02.2019 06:00:00 4,4 1,7 1006,6 -
11.02.2019 05:00:00 4,5 1,8 1007,2 -
11.02.2019 04:00:00 5,5 2,6 1006,4 -
11.02.2019 03:00:00 6,7 4,0 1006,6 -
11.02.2019 02:00:00 6,8 4,1 1006,9 -
11.02.2019 01:00:00 6,9 4,3 1007,4 0,0
11.02.2019 00:00:00 6,3 3,6 1006,4 -
10.02.2019 23:00:00 7,4 4,5 1005,9 -
10.02.2019 22:00:00 9,4 4,3 1006,6 -
10.02.2019 21:00:00 13,6 5,4 1007,6 -
10.02.2019 20:00:00 8,2 4,9 1007,9 -
10.02.2019 19:00:00 8,4 5,5 1008,8 0,0
10.02.2019 18:00:00 9,0 6,1 1010,2 -
10.02.2019 17:00:00 10,1 6,9 1011,9 -
10.02.2019 16:00:00 11,4 7,1 1012,5 -
10.02.2019 15:00:00 11,6 7,1 1013,4 -
10.02.2019 14:00:00 12,3 6,9 1014,1 -
10.02.2019 13:00:00 12,4 7,2 1015,2 0,0
10.02.2019 12:00:00 10,3 6,6 1016,9 -
10.02.2019 11:00:00 8,0 5,1 1017,7 -
10.02.2019 10:00:00 6,7 3,8 1018,0 -
10.02.2019 09:00:00 6,7 3,5 1018,3 -
10.02.2019 08:00:00 6,3 2,9 1018,4 -
10.02.2019 07:00:00 5,6 2,0 1018,7 0,0

tt = Temperatura
td = dewpoint
ppp = reduced air pressure
rr = precipitazioni

Stazioni seguenti

WeatherPro
AMSI
MeteoEarth